This demonstration page uses our WeatherBlox Daily Observations layout. Learn more.

Hourly Observations for December 6, 2016

Temp ( °F °C ) Dew Point ( °F °C ) Humidity (%) Winds ( mph kmh ) Pressure ( in mb ) Visibility ( mi km ) Precip ( " mm )
12:54 am 00:54 Cloudy 32 0 20 -6.7 61 61 NNW 20 31 29.93 1014 10 16.0934 0 0
1:54 am 01:54 Cloudy 32 0 18 -7.8 56 56 NNW 20 31 29.96 1015 10 16.0934 0 0
2:54 am 02:54 Cloudy 31 -0.6 19 -7.2 61 61 NNW 14 22 29.98 1015 10 16.0934 0 0
3:54 am 03:54 Mostly Cloudy 30 -1.1 15 -9.4 54 54 NNW 24 39 29.98 1015 10 16.0934 0 0
4:54 am 04:54 Clear 27 -2.8 12 -11.1 53 53 NNW 14 22 30.01 1016 10 16.0934 0 0
5:54 am 05:54 Clear 25 -3.9 12 -11.1 58 58 NW 14 22 30.04 1017 10 16.0934 0 0
6:54 am 06:54 Clear 24 -4.4 11 -11.7 57 57 NW 12 19 30.04 1017 10 16.0934 0 0
7:54 am 07:54 Sunny 24 -4.4 11 -11.7 57 57 WNW 13 20 30.06 1018 10 16.0934 0 0
8:54 am 08:54 Sunny 26 -3.3 11 -11.7 53 53 NW 15 24 30.07 1018 10 16.0934 0 0
9:54 am 09:54 Sunny 29 -1.7 9 -12.8 43 43 NNW 22 35 30.09 1019 10 16.0934 0 0
10:54 am 10:54 Sunny 31 -0.6 8 -13.3 38 38 NNW 26 43 30.09 1019 10 16.0934 0 0
11:54 am 11:54 Sunny 34 1.1 10 -12.2 37 37 NW 24 39 30.07 1018 10 16.0934 0 0
12:54 pm 12:54 Sunny 35 1.7 10 -12.2 35 35 WNW 20 31 30.06 1018 10 16.0934 0 0
1:54 pm 13:54 Sunny 36 2.2 8 -13.3 31 31 NW 21 33 30.05 1018 10 16.0934 0 0
2:54 pm 14:54 Sunny 36 2.2 8 -13.3 31 31 WNW 18 30 30.06 1018 10 16.0934 0 0
3:54 pm 15:54 Sunny 35 1.7 8 -13.3 32 32 WNW 14 22 30.08 1019 10 16.0934 0 0
4:54 pm 16:54 Sunny 33 0.6 8 -13.3 35 35 WNW 9 15 30.1 1019 10 16.0934 0 0
5:54 pm 17:54 Clear 30 -1.1 9 -12.8 41 41 WNW 5 7 30.12 1020 10 16.0934 0 0
6:54 pm 18:54 Clear 28 -2.2 9 -12.8 44 44 WNW 7 11 30.13 1020 10 16.0934 0 0
7:54 pm 19:54 Clear 28 -2.2 7 -13.9 41 41 WNW 9 15 30.16 1021 10 16.0934 0 0
8:54 pm 20:54 Clear 21 -6.1 9 -12.8 59 59 NNW 5 7 30.18 1022 10 16.0934 0 0
9:54 pm 21:54 Clear 26 -3.3 8 -13.3 46 46 WNW 8 13 30.19 1023 10 16.0934 0 0
10:54 pm 22:54 Clear 26 -3.3 9 -12.8 48 48 NW 9 15 30.21 1023 10 16.0934 0 0
11:54 pm 23:54 Partly Cloudy 25 -3.9 9 -12.8 50 50 NNW 9 15 30.22 1024 10 16.0934 0 0

Powered by AerisWeather